Regional Weather Roundup
Issued by NWS

Home | Current Version | Previous Version | Graphics & Text | Print | Product List | Glossary On
Versions: 1 2 3 4 5 6 7 8 9 10 11 12 13 14 15 16 17 18 19 20 21 22 23 24 25 26 27 28 29 30 31 32 33 34 35 36 37 38 39 40 41 42 43 44 45 46 47 48 49 50
000
ASUS43 KFSD 202010
RWRSD

WEATHER ROUNDUP FOR SOUTH DAKOTA
NATIONAL WEATHER SERVICE SIOUX FALLS SD
300 PM CDT SUN APR 20 2014

NOTE: "FAIR" INDICATES FEW OR NO CLOUDS BELOW 12,000 FEET WITH NO
SIGNIFICANT WEATHER AND/OR OBSTRUCTIONS TO VISIBILITY.


SDZ001>005-009-010-012>017-202100-
NORTHWEST AND NORTH CENTRAL SOUTH DAKOTA

CITY           SKY/WX    TMP DP  RH WIND       PRES   REMARKS
BUFFALO          N/A     65  28  24 NW30G36   29.92R
FAITH            N/A     73  43  33 W10       29.91R
MOBRIDGE       SUNNY     76  26  15 S18       29.87F
$$

SDZ012>016-024>037-041>051-057-063-072>074-202100-
SOUTHWEST AND SOUTH CENTRAL SOUTH DAKOTA

CITY           SKY/WX    TMP DP  RH WIND       PRES   REMARKS
RAPID CTY ARPT MOSUNNY   73  42  32 N17G23    29.94R
PIERRE         SUNNY     77  33  20 SE14G21   29.87F
CUSTER         CLOUDY    64  35  34 SE9       30.00R
ELLSWORTH AFB  PTSUNNY   70  41  34 N14       29.95R
PHILIP         SUNNY     78  45  30 SW12      29.86F
PINE RIDGE     SUNNY     76  34  21 W16G23    29.92F
SPEARFISH      FAIR      61  32  33 NW18G25   30.03S
WINNER         FAIR      80  40  23 SE14      29.89F
$$

SDZ004>011-016>023-039-040-202100-
NORTHEAST SOUTH DAKOTA

CITY           SKY/WX    TMP DP  RH WIND       PRES   REMARKS
ABERDEEN       SUNNY     76  27  16 S17G24    29.92F
WATERTOWN      SUNNY     73  30  20 SE13      29.95F
SISSETON         N/A     73  31  21 S10       29.94F
$$

SDZ017-020-022-023-036>040-048>070-202100-
SOUTHEAST SOUTH DAKOTA

CITY           SKY/WX    TMP DP  RH WIND       PRES   REMARKS
SIOUX FALLS    SUNNY     78  47  33 E13       29.93F
HURON          SUNNY     78  28  16 S12G21    29.91F
CHAMBERLAIN      N/A     79  31  17 S14G20    29.90F
MITCHELL       SUNNY     80  42  25 E15G28    29.91F
YANKTON        MOSUNNY   73  48  40 E9        29.92F
$$

ABBREVIATIONS USED IN REMARKS
   TC - TEMPERATURE IN CELSIUS
  WCI - WIND CHILL INDEX
   HX - HEAT INDEX
  VSB - VISIBILITY




USA.gov is the U.S. government's official web portal to all federal, state and local government web resources and services.